Location: De Platvoet
(52.2667°N, 6.1667°E)
Time: 12:30:00
(UTC+00:00)

Cosmos 2360 Rocket - Pass Details

Date: 15 May 2026
Orbit: 831 x 845 km, 71.0° (Epoch: 7 June)

Event Time Altitude Azimuth Distance (km) Brightness Sun altitude
Rises 20:00:02 0° 329° (NNW) 3,417 7.0 -5.2°
Reaches altitude 10° 20:02:36 10° 336° (NNW) 2,479 5.9 -5.5°
Maximum altitude 20:08:05 47° 50° (NE) 1,114 2.8 -6.1°
Drops below altitude 10° 20:13:32 10° 124° (ESE) 2,464 4.0 -6.8°
Enters shadow 20:14:01 - 125° (SE) 2,640 4.1 -6.8°
